"read_dt","SO2 (ppb)","flags","PMT voltage (V)","lamp voltage (V)","lamp intensity (Hz)","internal temp (C)","react chamber temp (C)","sample flow (l/min)","pres (mmHg)","SO2 bkg (ppb)","SO2 coefficient"
2015-03-27 00:00:00,1799E-3,5C000000,-0724,0834,12162,027.3,045.4,0.474,735.6,01.18,0.508
2015-03-27 00:01:00,1797E-3,5C000000,-0724,0833,12127,027.4,045.4,0.474,735.7,01.18,0.508
2015-03-27 00:02:00,1833E-3,5C000000,-0724,0833,12237,027.4,045.4,0.474,735.6,01.18,0.508
2015-03-27 00:03:00,1648E-3,5C000000,-0724,0834,12165,027.4,045.4,0.475,735.7,01.18,0.508
2015-03-27 00:04:00,1909E-3,5C000000,-0724,0834,12149,027.4,045.4,0.475,735.6,01.18,0.508
2015-03-27 00:05:00,2014E-3,5C000000,-0724,0833,12122,027.3,045.4,0.475,735.5,01.18,0.508
2015-03-27 00:06:00,1767E-3,5C000000,-0724,0834,12195,027.4,045.4,0.475,735.8,01.18,0.508
2015-03-27 00:07:00,1842E-3,5C000000,-0724,0833,12180,027.4,045.4,0.475,735.7,01.18,0.508
2015-03-27 00:08:00,1835E-3,5C000000,-0724,0834,11995,027.3,045.4,0.475,735.7,01.18,0.508
2015-03-27 00:09:00,1951E-3,5C000000,-0724,0834,12245,027.4,045.4,0.474,735.6,01.18,0.508
2015-03-27 00:10:00,1894E-3,5C000000,-0724,0834,12105,027.4,045.4,0.474,735.8,01.18,0.508
2015-03-27 00:11:00,1904E-3,5C000000,-0724,0834,12278,027.4,045.4,0.475,735.7,01.18,0.508
2015-03-27 00:12:00,1909E-3,5C000000,-0724,0833,12151,027.4,045.4,0.475,735.7,01.18,0.508
2015-03-27 00:13:00,1813E-3,5C000000,-0724,0834,11887,027.4,045.4,0.475,735.9,01.18,0.508
2015-03-27 00:14:00,1792E-3,5C000000,-0724,0834,12191,027.3,045.4,0.475,735.9,01.18,0.508
2015-03-27 00:15:00,1786E-3,5C000000,-0724,0834,12131,027.3,045.4,0.475,736.0,01.18,0.508
2015-03-27 00:16:00,1915E-3,5C000000,-0724,0834,12163,027.3,045.4,0.474,735.9,01.18,0.508
2015-03-27 00:17:00,1781E-3,5C000000,-0724,0834,12127,027.3,045.4,0.474,735.9,01.18,0.508
2015-03-27 00:18:00,1781E-3,5C000000,-0724,0834,12228,027.3,045.4,0.475,735.9,01.18,0.508
2015-03-27 00:19:00,1788E-3,5C000000,-0724,0834,12237,027.4,045.4,0.475,736.0,01.18,0.508
2015-03-27 00:20:00,1718E-3,5C000000,-0724,0834,12108,027.4,045.4,0.475,735.9,01.18,0.508
2015-03-27 00:21:00,1932E-3,5C000000,-0724,0834,12229,027.3,045.4,0.475,736.0,01.18,0.508
2015-03-27 00:22:00,1828E-3,5C000000,-0724,0834,12077,027.3,045.4,0.475,736.2,01.18,0.508
2015-03-27 00:23:00,1793E-3,5C000000,-0724,0834,12116,027.4,045.4,0.474,735.9,01.18,0.508
2015-03-27 00:24:00,1789E-3,5C000000,-0724,0834,12298,027.3,045.4,0.475,735.9,01.18,0.508
2015-03-27 00:25:00,1814E-3,5C000000,-0724,0834,12228,027.3,045.4,0.475,736.1,01.18,0.508
2015-03-27 00:26:00,1849E-3,5C000000,-0724,0835,11991,027.4,045.4,0.475,735.9,01.18,0.508
2015-03-27 00:27:00,1809E-3,5C000000,-0724,0834,12145,027.3,045.4,0.475,736.2,01.18,0.508
2015-03-27 00:28:00,1778E-3,5C000000,-0724,0834,11960,027.3,045.4,0.474,735.9,01.18,0.508
2015-03-27 00:29:00,1652E-3,5C000000,-0724,0834,12086,027.3,045.4,0.475,735.9,01.18,0.508
2015-03-27 00:30:00,1925E-3,5C000000,-0724,0834,12283,027.3,045.4,0.475,736.1,01.18,0.508
2015-03-27 00:31:00,1800E-3,5C000000,-0724,0834,12224,027.3,045.4,0.475,736.0,01.18,0.508
2015-03-27 00:32:00,1925E-3,5C000000,-0724,0834,12113,027.3,045.4,0.475,736.1,01.18,0.508
2015-03-27 00:33:00,1816E-3,5C000000,-0724,0834,12207,027.3,045.4,0.475,736.0,01.18,0.508
2015-03-27 00:34:00,1823E-3,5C000000,-0724,0833,12220,027.3,045.4,0.474,736.0,01.18,0.508
2015-03-27 00:35:00,1872E-3,5C000000,-0724,0834,12018,027.4,045.4,0.475,735.9,01.18,0.508
2015-03-27 00:36:00,1554E-3,5C000000,-0724,0835,12104,027.3,045.4,0.475,736.0,01.18,0.508
2015-03-27 00:37:00,1767E-3,5C000000,-0724,0834,12148,027.3,045.4,0.475,735.9,01.18,0.508
2015-03-27 00:38:00,1713E-3,5C000000,-0724,0834,12154,027.3,045.4,0.475,735.8,01.18,0.508
2015-03-27 00:39:00,1792E-3,5C000000,-0724,0834,12258,027.3,045.4,0.475,735.9,01.18,0.508
2015-03-27 00:40:00,1885E-3,5C000000,-0724,0834,12382,027.4,045.4,0.474,735.8,01.18,0.508
2015-03-27 00:41:00,1856E-3,5C000000,-0724,0834,12191,027.3,045.4,0.474,735.8,01.18,0.508
2015-03-27 00:42:00,1747E-3,5C000000,-0724,0834,12257,027.3,045.4,0.475,735.7,01.18,0.508
2015-03-27 00:43:00,1926E-3,5C000000,-0724,0834,12374,027.3,045.4,0.475,735.7,01.18,0.508
2015-03-27 00:44:00,1768E-3,5C000000,-0724,0833,12186,027.3,045.4,0.475,735.8,01.18,0.508
2015-03-27 00:45:00,1849E-3,5C000000,-0724,0834,12253,027.3,045.4,0.475,735.8,01.18,0.508
2015-03-27 00:46:00,1839E-3,5C000000,-0724,0834,12075,027.3,045.4,0.475,736.0,01.18,0.508
2015-03-27 00:47:00,1896E-3,5C000000,-0724,0834,12302,027.3,045.4,0.475,736.1,01.18,0.508
2015-03-27 00:48:00,1866E-3,5C000000,-0724,0833,12270,027.3,045.4,0.475,736.0,01.18,0.508
2015-03-27 00:49:00,1797E-3,5C000000,-0724,0833,12309,027.3,045.4,0.475,736.0,01.18,0.508
2015-03-27 00:50:00,1876E-3,5C000000,-0724,0834,12227,027.3,045.4,0.475,736.0,01.18,0.508
2015-03-27 00:51:00,1925E-3,5C000000,-0724,0834,12091,027.3,045.4,0.475,736.1,01.18,0.508
2015-03-27 00:52:00,1739E-3,5C000000,-0724,0834,12172,027.4,045.4,0.475,736.3,01.18,0.508
2015-03-27 00:53:00,1875E-3,5C000000,-0724,0834,12088,027.4,045.4,0.475,736.3,01.18,0.508
2015-03-27 00:54:00,1779E-3,5C000000,-0724,0834,12088,027.3,045.4,0.475,736.2,01.18,0.508
2015-03-27 00:55:00,1714E-3,5C000000,-0724,0834,12257,027.3,045.4,0.475,736.3,01.18,0.508
2015-03-27 00:56:00,1794E-3,5C000000,-0724,0834,12098,027.4,045.4,0.475,736.3,01.18,0.508
2015-03-27 00:57:00,1804E-3,5C000000,-0724,0834,11980,027.3,045.4,0.475,736.1,01.18,0.508
2015-03-27 00:58:00,1942E-3,5C000000,-0724,0835,12174,027.4,045.4,0.475,736.3,01.18,0.508
2015-03-27 00:59:00,1804E-3,5C000000,-0724,0834,12085,027.3,045.4,0.475,736.2,01.18,0.508
2015-03-27 01:00:00,1929E-3,5C000000,-0724,0833,12114,027.3,045.4,0.475,736.1,01.18,0.508
2015-03-27 01:01:00,1734E-3,5C000000,-0724,0834,11974,027.3,045.4,0.475,735.9,01.18,0.508
2015-03-27 01:02:00,1927E-3,5C000000,-0724,0835,12255,027.3,045.4,0.475,735.9,01.18,0.508
2015-03-27 01:03:00,1810E-3,5C000000,-0724,0834,11919,027.3,045.4,0.475,736.0,01.18,0.508
2015-03-27 01:04:00,1856E-3,5C000000,-0724,0833,12125,027.3,045.4,0.475,736.0,01.18,0.508
2015-03-27 01:05:00,1759E-3,5C000000,-0724,0834,12244,027.3,045.4,0.475,736.5,01.18,0.508
2015-03-27 01:06:00,1777E-3,5C000000,-0724,0834,12208,027.3,045.4,0.475,736.1,01.18,0.508
2015-03-27 01:07:00,1774E-3,5C000000,-0724,0834,12167,027.3,045.4,0.475,736.3,01.18,0.508
2015-03-27 01:08:00,1825E-3,5C000000,-0724,0834,12153,027.3,045.4,0.475,736.2,01.18,0.508
2015-03-27 01:09:00,1712E-3,5C000000,-0724,0834,12169,027.3,045.4,0.475,736.1,01.18,0.508
2015-03-27 01:10:00,1736E-3,5C000000,-0724,0834,12166,027.4,045.4,0.475,736.2,01.18,0.508
2015-03-27 01:11:00,1815E-3,5C000000,-0724,0834,12194,027.3,045.4,0.475,736.0,01.18,0.508
2015-03-27 01:12:00,1815E-3,5C000000,-0724,0834,12099,027.4,045.4,0.475,736.0,01.18,0.508
2015-03-27 01:13:00,1796E-3,5C000000,-0724,0834,12081,027.3,045.4,0.475,736.1,01.18,0.508
2015-03-27 01:14:00,1778E-3,5C000000,-0724,0834,12091,027.3,045.4,0.475,736.3,01.18,0.508
2015-03-27 01:15:00,1812E-3,5C000000,-0724,0834,12215,027.3,045.4,0.475,736.5,01.18,0.508
2015-03-27 01:16:00,1868E-3,5C000000,-0724,0834,12069,027.3,045.4,0.475,736.1,01.18,0.508
2015-03-27 01:17:00,1701E-3,5C000000,-0724,0834,12263,027.3,045.4,0.475,736.1,01.18,0.508
2015-03-27 01:18:00,1855E-3,5C000000,-0724,0834,12157,027.3,045.4,0.475,736.1,01.18,0.508
2015-03-27 01:19:00,1904E-3,5C000000,-0724,0833,12087,027.3,045.4,0.475,736.4,01.18,0.508
2015-03-27 01:20:00,1803E-3,5C000000,-0724,0834,12061,027.3,045.4,0.475,736.0,01.18,0.508
2015-03-27 01:21:00,1867E-3,5C000000,-0724,0833,12077,027.4,045.4,0.475,736.5,01.18,0.508
2015-03-27 01:22:00,1795E-3,5C000000,-0724,0834,12178,027.3,045.4,0.474,736.1,01.18,0.508
2015-03-27 01:23:00,1783E-3,5C000000,-0724,0834,12056,027.3,045.4,0.475,736.5,01.18,0.508
2015-03-27 01:24:00,1797E-3,5C000000,-0724,0833,12100,027.3,045.4,0.475,736.6,01.18,0.508
2015-03-27 01:25:00,1877E-3,5C000000,-0724,0835,12149,027.4,045.4,0.475,736.7,01.18,0.508
2015-03-27 01:26:00,1864E-3,5C000000,-0724,0835,12189,027.3,045.4,0.475,736.4,01.18,0.508
2015-03-27 01:27:00,1839E-3,5C000000,-0724,0835,12216,027.3,045.4,0.475,736.1,01.18,0.508
2015-03-27 01:28:00,2032E-3,5C000000,-0724,0835,12016,027.3,045.4,0.475,736.1,01.18,0.508
2015-03-27 01:29:00,1944E-3,5C000000,-0724,0834,12187,027.3,045.4,0.475,736.0,01.18,0.508
2015-03-27 01:30:00,1868E-3,5C000000,-0724,0834,12104,027.3,045.4,0.475,736.5,01.18,0.508
2015-03-27 01:31:00,1826E-3,5C000000,-0724,0833,12073,027.3,045.4,0.475,736.0,01.18,0.508
2015-03-27 01:32:00,1826E-3,5C000000,-0724,0834,12219,027.3,045.4,0.475,735.8,01.18,0.508
2015-03-27 01:33:00,1799E-3,5C000000,-0724,0834,12074,027.3,045.4,0.475,736.0,01.18,0.508
2015-03-27 01:34:00,1881E-3,5C000000,-0724,0834,12107,027.3,045.4,0.475,736.6,01.18,0.508
2015-03-27 01:35:00,1787E-3,5C000000,-0724,0833,12071,027.3,045.4,0.475,736.2,01.18,0.508
2015-03-27 01:36:00,1810E-3,5C000000,-0724,0834,12149,027.3,045.4,0.475,736.3,01.18,0.508
2015-03-27 01:37:00,1960E-3,5C000000,-0724,0835,12152,027.3,045.4,0.475,736.3,01.18,0.508
2015-03-27 01:38:00,1841E-3,5C000000,-0724,0834,12148,027.3,045.4,0.475,736.2,01.18,0.508
2015-03-27 01:39:00,1805E-3,5C000000,-0724,0834,12121,027.3,045.4,0.475,736.2,01.18,0.508
2015-03-27 01:40:00,1803E-3,5C000000,-0724,0834,12125,027.3,045.4,0.475,736.6,01.18,0.508
2015-03-27 01:41:00,1711E-3,5C000000,-0724,0834,12138,027.3,045.4,0.475,736.6,01.18,0.508
2015-03-27 01:42:00,1874E-3,5C000000,-0724,0834,12118,027.3,045.4,0.475,736.6,01.18,0.508
2015-03-27 01:43:00,1892E-3,5C000000,-0724,0834,12113,027.3,045.4,0.475,736.5,01.18,0.508
2015-03-27 01:44:00,1896E-3,5C000000,-0724,0834,12076,027.3,045.4,0.475,736.6,01.18,0.508
2015-03-27 01:45:00,1809E-3,5C000000,-0724,0833,11997,027.3,045.4,0.475,736.2,01.18,0.508
2015-03-27 01:46:00,1889E-3,5C000000,-0724,0834,12218,027.3,045.4,0.475,736.7,01.18,0.508
2015-03-27 01:47:00,1715E-3,5C000000,-0724,0834,12157,027.3,045.4,0.475,736.7,01.18,0.508
2015-03-27 01:48:00,1838E-3,5C000000,-0724,0834,12349,027.3,045.4,0.475,736.9,01.18,0.508
2015-03-27 01:49:00,1904E-3,5C000000,-0724,0833,12103,027.3,045.4,0.476,736.7,01.18,0.508
2015-03-27 01:50:00,1757E-3,5C000000,-0724,0834,12156,027.3,045.4,0.475,736.7,01.18,0.508
2015-03-27 01:51:00,1817E-3,5C000000,-0724,0833,12188,027.3,045.4,0.475,736.6,01.18,0.508
2015-03-27 01:52:00,1857E-3,5C000000,-0724,0834,12158,027.3,045.4,0.475,736.9,01.18,0.508
2015-03-27 01:53:00,1700E-3,5C000000,-0724,0833,12131,027.3,045.4,0.475,736.7,01.18,0.508
2015-03-27 01:54:00,1890E-3,5C000000,-0724,0833,12038,027.3,045.4,0.476,736.8,01.18,0.508
2015-03-27 01:55:00,1894E-3,5C000000,-0724,0833,11984,027.3,045.4,0.475,736.8,01.18,0.508
2015-03-27 01:56:00,1847E-3,5C000000,-0724,0834,12093,027.3,045.4,0.475,736.8,01.18,0.508
2015-03-27 01:57:00,1760E-3,5C000000,-0724,0834,12159,027.3,045.4,0.475,736.9,01.18,0.508
2015-03-27 01:58:00,1829E-3,5C000000,-0724,0834,12197,027.3,045.4,0.475,737.0,01.18,0.508
2015-03-27 01:59:00,1842E-3,5C000000,-0724,0834,12244,027.3,045.4,0.476,736.8,01.18,0.508
2015-03-27 02:00:00,1826E-3,5C000000,-0724,0834,12122,027.3,045.4,0.475,737.0,01.18,0.508
2015-03-27 02:01:00,1878E-3,5C000000,-0724,0834,12117,027.3,045.4,0.475,736.8,01.18,0.508
2015-03-27 02:02:00,1836E-3,5C000000,-0724,0834,12313,027.3,045.4,0.475,736.9,01.18,0.508
2015-03-27 02:03:00,1835E-3,5C000000,-0724,0834,11931,027.3,045.4,0.475,737.0,01.18,0.508
2015-03-27 02:04:00,1864E-3,5C000000,-0724,0834,12281,027.3,045.4,0.476,737.1,01.18,0.508
2015-03-27 02:05:00,1880E-3,5C000000,-0724,0835,12268,027.3,045.4,0.476,736.8,01.18,0.508
2015-03-27 02:06:00,1942E-3,5C000000,-0724,0834,12097,027.3,045.4,0.475,736.9,01.18,0.508
2015-03-27 02:07:00,1842E-3,5C000000,-0724,0834,12283,027.3,045.4,0.475,736.9,01.18,0.508
2015-03-27 02:08:00,1772E-3,5C000000,-0724,0833,12164,027.3,045.4,0.475,736.9,01.18,0.508
2015-03-27 02:09:00,1817E-3,5C000000,-0724,0835,12102,027.3,045.4,0.476,736.9,01.18,0.508
2015-03-27 02:10:00,1941E-3,5C000000,-0724,0833,12130,027.3,045.4,0.476,736.7,01.18,0.508
2015-03-27 02:11:00,1871E-3,5C000000,-0724,0834,12230,027.3,045.4,0.475,736.9,01.18,0.508
2015-03-27 02:12:00,1840E-3,5C000000,-0724,0833,12185,027.3,045.4,0.475,736.7,01.18,0.508
2015-03-27 02:13:00,1850E-3,5C000000,-0724,0834,12209,027.4,045.4,0.475,736.7,01.18,0.508
2015-03-27 02:14:00,1979E-3,5C000000,-0724,0834,12169,027.4,045.4,0.475,737.0,01.18,0.508
2015-03-27 02:15:00,1877E-3,5C000000,-0724,0834,12181,027.3,045.4,0.475,736.8,01.18,0.508
2015-03-27 02:16:00,1771E-3,5C000000,-0724,0834,12201,027.3,045.4,0.475,736.8,01.18,0.508
2015-03-27 02:17:00,1951E-3,5C000000,-0724,0834,12145,027.3,045.4,0.475,736.7,01.18,0.508
2015-03-27 02:18:00,1799E-3,5C000000,-0724,0835,12152,027.4,045.4,0.475,736.8,01.18,0.508
2015-03-27 02:19:00,1905E-3,5C000000,-0724,0834,12278,027.4,045.4,0.475,736.9,01.18,0.508
2015-03-27 02:20:00,1893E-3,5C000000,-0724,0834,12095,027.3,045.4,0.475,736.9,01.18,0.508
2015-03-27 02:21:00,1877E-3,5C000000,-0724,0834,11987,027.4,045.4,0.475,737.0,01.18,0.508
2015-03-27 02:22:00,1855E-3,5C000000,-0724,0833,12260,027.4,045.4,0.475,736.9,01.18,0.508
2015-03-27 02:23:00,1777E-3,5C000000,-0724,0834,12280,027.4,045.4,0.475,737.1,01.18,0.508
2015-03-27 02:24:00,1894E-3,5C000000,-0724,0834,12314,027.4,045.5,0.475,737.1,01.18,0.508
2015-03-27 02:25:00,1857E-3,5C000000,-0724,0835,12115,027.4,045.4,0.476,737.2,01.18,0.508
2015-03-27 02:26:00,1714E-3,5C000000,-0724,0833,12158,027.4,045.4,0.475,737.3,01.18,0.508
2015-03-27 02:27:00,1912E-3,5C000000,-0724,0834,12250,027.4,045.4,0.475,737.2,01.18,0.508
2015-03-27 02:28:00,1950E-3,5C000000,-0724,0834,12324,027.4,045.4,0.475,736.8,01.18,0.508
2015-03-27 02:29:00,1710E-3,5C000000,-0724,0833,12134,027.4,045.4,0.475,736.9,01.18,0.508
2015-03-27 02:30:00,1812E-3,5C000000,-0724,0834,12087,027.4,045.4,0.475,737.1,01.18,0.508
2015-03-27 02:31:00,1892E-3,5C000000,-0724,0834,12123,027.4,045.4,0.476,737.1,01.18,0.508
2015-03-27 02:32:00,1787E-3,5C000000,-0724,0834,12224,027.4,045.4,0.475,737.1,01.18,0.508
2015-03-27 02:33:00,1803E-3,5C000000,-0724,0834,12217,027.4,045.4,0.475,737.1,01.18,0.508
2015-03-27 02:34:00,1806E-3,5C000000,-0724,0834,12119,027.4,045.4,0.475,737.1,01.18,0.508
2015-03-27 02:35:00,1850E-3,5C000000,-0724,0834,12143,027.4,045.4,0.475,737.2,01.18,0.508
2015-03-27 02:36:00,1845E-3,5C000000,-0724,0834,12233,027.4,045.4,0.476,737.4,01.18,0.508
2015-03-27 02:37:00,1942E-3,5C000000,-0724,0833,12146,027.4,045.4,0.475,737.7,01.18,0.508
2015-03-27 02:38:00,1866E-3,5C000000,-0724,0833,12143,027.4,045.4,0.475,737.7,01.18,0.508
2015-03-27 02:39:00,1737E-3,5C000000,-0724,0834,12210,027.4,045.4,0.475,737.6,01.18,0.508
2015-03-27 02:40:00,2044E-3,5C000000,-0724,0833,12090,027.4,045.4,0.476,737.6,01.18,0.508
2015-03-27 02:41:00,1835E-3,5C000000,-0724,0834,12238,027.4,045.4,0.475,737.4,01.18,0.508
2015-03-27 02:42:00,1947E-3,5C000000,-0724,0834,12202,027.4,045.4,0.475,737.6,01.18,0.508
2015-03-27 02:43:00,1970E-3,5C000000,-0724,0833,12061,027.4,045.4,0.475,737.6,01.18,0.508
2015-03-27 02:44:00,1904E-3,5C000000,-0724,0834,12193,027.4,045.4,0.476,737.5,01.18,0.508
2015-03-27 02:45:00,1756E-3,5C000000,-0724,0835,12318,027.4,045.4,0.476,737.6,01.18,0.508
2015-03-27 02:46:00,1862E-3,5C000000,-0724,0834,12199,027.4,045.4,0.475,737.6,01.18,0.508
2015-03-27 02:47:00,1766E-3,5C000000,-0724,0834,12206,027.5,045.4,0.475,737.6,01.18,0.508
2015-03-27 02:48:00,1687E-3,5C000000,-0724,0835,12143,027.5,045.4,0.475,737.5,01.18,0.508
2015-03-27 02:49:00,1959E-3,5C000000,-0724,0833,12038,027.5,045.4,0.476,737.5,01.18,0.508
2015-03-27 02:50:00,1858E-3,5C000000,-0724,0833,12226,027.5,045.4,0.475,737.4,01.18,0.508
2015-03-27 02:51:00,1789E-3,5C000000,-0724,0835,12166,027.5,045.4,0.475,737.7,01.18,0.508
2015-03-27 02:52:00,1720E-3,5C000000,-0724,0833,12162,027.5,045.4,0.475,737.8,01.18,0.508
2015-03-27 02:53:00,1935E-3,5C000000,-0724,0834,12329,027.5,045.4,0.475,737.5,01.18,0.508
2015-03-27 02:54:00,1852E-3,5C000000,-0724,0834,12279,027.5,045.4,0.476,737.6,01.18,0.508
2015-03-27 02:55:00,1756E-3,5C000000,-0724,0834,12235,027.5,045.4,0.475,737.5,01.18,0.508
2015-03-27 02:56:00,1819E-3,5C000000,-0724,0834,12047,027.5,045.4,0.475,737.5,01.18,0.508
2015-03-27 02:57:00,1752E-3,5C000000,-0724,0834,12082,027.5,045.4,0.475,737.4,01.18,0.508
2015-03-27 02:58:00,1881E-3,5C000000,-0724,0834,12101,027.5,045.4,0.475,737.4,01.18,0.508
2015-03-27 02:59:00,1794E-3,5C000000,-0724,0834,12132,027.5,045.4,0.475,737.3,01.18,0.508
2015-03-27 03:00:00,1902E-3,5C000000,-0724,0833,12114,027.6,045.4,0.475,737.5,01.18,0.508
2015-03-27 03:01:00,1860E-3,5C000000,-0724,0834,12009,027.6,045.4,0.475,737.7,01.18,0.508
2015-03-27 03:02:00,1797E-3,5C000000,-0724,0834,12231,027.5,045.4,0.475,737.6,01.18,0.508
2015-03-27 03:03:00,1748E-3,5C000000,-0724,0835,12151,027.5,045.4,0.476,737.6,01.18,0.508
2015-03-27 03:04:00,1896E-3,5C000000,-0724,0834,12154,027.6,045.4,0.475,737.5,01.18,0.508
2015-03-27 03:05:00,1820E-3,5C000000,-0724,0833,12129,027.6,045.4,0.475,737.3,01.18,0.508
2015-03-27 03:06:00,1838E-3,5C000000,-0724,0834,12111,027.6,045.4,0.475,737.5,01.18,0.508
2015-03-27 03:07:00,1780E-3,5C000000,-0724,0835,12257,027.6,045.4,0.475,737.6,01.18,0.508
2015-03-27 03:08:00,1832E-3,5C000000,-0724,0834,12267,027.6,045.4,0.475,737.6,01.18,0.508
2015-03-27 03:09:00,1843E-3,5C000000,-0724,0834,12162,027.7,045.4,0.475,737.8,01.18,0.508
2015-03-27 03:10:00,1831E-3,5C000000,-0724,0834,12052,027.7,045.4,0.475,737.7,01.18,0.508
2015-03-27 03:11:00,1807E-3,5C000000,-0724,0834,12139,027.6,045.4,0.475,737.4,01.18,0.508
2015-03-27 03:12:00,1743E-3,5C000000,-0724,0834,12132,027.7,045.4,0.475,737.4,01.18,0.508
2015-03-27 03:13:00,1941E-3,5C000000,-0724,0834,12101,027.6,045.4,0.475,737.3,01.18,0.508
2015-03-27 03:14:00,1818E-3,5C000000,-0724,0834,12026,027.7,045.4,0.475,737.5,01.18,0.508
2015-03-27 03:15:00,1793E-3,5C000000,-0724,0835,12221,027.7,045.4,0.475,737.5,01.18,0.508
2015-03-27 03:16:00,1722E-3,5C000000,-0724,0834,12129,027.7,045.4,0.475,737.5,01.18,0.508
2015-03-27 03:17:00,1972E-3,5C000000,-0724,0834,12032,027.7,045.4,0.475,737.6,01.18,0.508
2015-03-27 03:18:00,1950E-3,5C000000,-0724,0834,12166,027.7,045.4,0.475,737.6,01.18,0.508
2015-03-27 03:19:00,1675E-3,5C000000,-0724,0834,12214,027.7,045.4,0.475,737.5,01.18,0.508
2015-03-27 03:20:00,1857E-3,5C000000,-0724,0834,12260,027.7,045.4,0.475,737.7,01.18,0.508
2015-03-27 03:21:00,1790E-3,5C000000,-0724,0833,11993,027.7,045.4,0.475,737.7,01.18,0.508
2015-03-27 03:22:00,1983E-3,5C000000,-0724,0834,12204,027.8,045.4,0.475,737.7,01.18,0.508
2015-03-27 03:23:00,1921E-3,5C000000,-0724,0833,12112,027.7,045.4,0.475,737.7,01.18,0.508
2015-03-27 03:24:00,1766E-3,5C000000,-0724,0835,12181,027.7,045.4,0.475,737.7,01.18,0.508
2015-03-27 03:25:00,1793E-3,5C000000,-0724,0834,12223,027.8,045.4,0.475,737.7,01.18,0.508
2015-03-27 03:26:00,1923E-3,5C000000,-0724,0834,12257,027.7,045.4,0.475,737.6,01.18,0.508
2015-03-27 03:27:00,1830E-3,5C000000,-0724,0834,12076,027.7,045.4,0.475,737.7,01.18,0.508
2015-03-27 03:28:00,1975E-3,5C000000,-0724,0833,12136,027.8,045.4,0.475,737.8,01.18,0.508
2015-03-27 03:29:00,1900E-3,5C000000,-0724,0835,12206,027.8,045.4,0.475,738.0,01.18,0.508
2015-03-27 03:30:00,1799E-3,5C000000,-0724,0834,11923,027.8,045.4,0.475,738.0,01.18,0.508
2015-03-27 03:31:00,1874E-3,5C000000,-0724,0833,12109,027.8,045.4,0.476,738.0,01.18,0.508
2015-03-27 03:32:00,1905E-3,5C000000,-0724,0834,12329,027.8,045.4,0.475,738.1,01.18,0.508
2015-03-27 03:33:00,2003E-3,5C000000,-0724,0834,12212,027.8,045.4,0.475,738.1,01.18,0.508
2015-03-27 03:34:00,2068E-3,5C000000,-0724,0833,12224,027.8,045.4,0.476,738.2,01.18,0.508
2015-03-27 03:35:00,1743E-3,5C000000,-0724,0834,12218,027.8,045.4,0.475,738.3,01.18,0.508
2015-03-27 03:36:00,1871E-3,5C000000,-0724,0833,12169,027.8,045.4,0.475,738.3,01.18,0.508
2015-03-27 03:37:00,1949E-3,5C000000,-0724,0834,12097,027.8,045.4,0.475,738.2,01.18,0.508
2015-03-27 03:38:00,1834E-3,5C000000,-0724,0834,12227,027.8,045.4,0.476,738.2,01.18,0.508
2015-03-27 03:39:00,1929E-3,5C000000,-0724,0834,12191,027.9,045.4,0.475,738.4,01.18,0.508
2015-03-27 03:40:00,1895E-3,5C000000,-0724,0834,11997,027.9,045.4,0.475,738.3,01.18,0.508
2015-03-27 03:41:00,1906E-3,5C000000,-0724,0835,12217,027.9,045.4,0.475,738.2,01.18,0.508
2015-03-27 03:42:00,1967E-3,5C000000,-0724,0833,12013,027.9,045.4,0.475,738.2,01.18,0.508
2015-03-27 03:43:00,1977E-3,5C000000,-0724,0834,12231,027.9,045.4,0.475,738.1,01.18,0.508
2015-03-27 03:44:00,1911E-3,5C000000,-0724,0834,12232,027.9,045.4,0.475,738.3,01.18,0.508
2015-03-27 03:45:00,2034E-3,5C000000,-0724,0833,12243,027.9,045.5,0.475,738.0,01.18,0.508
2015-03-27 03:46:00,1873E-3,5C000000,-0724,0833,12104,028.0,045.5,0.475,737.9,01.18,0.508
2015-03-27 03:47:00,1874E-3,5C000000,-0724,0834,12048,027.9,045.4,0.475,738.0,01.18,0.508
2015-03-27 03:48:00,1925E-3,5C000000,-0724,0834,11945,027.9,045.4,0.475,738.0,01.18,0.508
2015-03-27 03:49:00,1873E-3,5C000000,-0724,0834,12198,027.9,045.4,0.475,737.9,01.18,0.508
2015-03-27 03:50:00,1892E-3,5C000000,-0724,0834,12174,027.9,045.5,0.475,737.8,01.18,0.508
2015-03-27 03:51:00,1929E-3,5C000000,-0724,0833,12052,028.0,045.4,0.475,737.9,01.18,0.508
2015-03-27 03:52:00,1872E-3,5C000000,-0724,0834,12090,028.0,045.4,0.475,737.6,01.18,0.508
2015-03-27 03:53:00,1926E-3,5C000000,-0724,0834,12179,028.0,045.4,0.475,737.6,01.18,0.508
2015-03-27 03:54:00,1734E-3,5C000000,-0724,0834,12289,028.0,045.4,0.474,737.7,01.18,0.508
2015-03-27 03:55:00,1937E-3,5C000000,-0724,0834,12159,028.0,045.4,0.475,737.3,01.18,0.508
2015-03-27 03:56:00,1894E-3,5C000000,-0724,0835,12169,028.0,045.4,0.475,737.6,01.18,0.508
2015-03-27 03:57:00,1843E-3,5C000000,-0724,0834,12139,028.0,045.4,0.475,737.5,01.18,0.508
2015-03-27 03:58:00,1882E-3,5C000000,-0724,0834,12263,028.0,045.4,0.474,737.5,01.18,0.508
2015-03-27 03:59:00,1882E-3,5C000000,-0724,0833,12156,028.0,045.4,0.475,737.5,01.18,0.508
2015-03-27 04:00:00,1937E-3,5C000000,-0724,0835,12035,028.0,045.4,0.475,737.1,01.18,0.508
2015-03-27 04:01:00,1850E-3,5C000000,-0724,0833,12110,028.0,045.4,0.474,737.1,01.18,0.508
2015-03-27 04:02:00,1919E-3,5C000000,-0724,0835,12037,028.0,045.4,0.474,737.3,01.18,0.508
2015-03-27 04:03:00,1830E-3,5C000000,-0724,0834,12073,028.0,045.4,0.475,737.3,01.18,0.508
2015-03-27 04:04:00,2041E-3,5C000000,-0724,0834,12125,028.0,045.4,0.475,737.5,01.18,0.508
2015-03-27 04:05:00,1756E-3,5C000000,-0724,0834,12024,028.0,045.4,0.474,737.2,01.18,0.508
2015-03-27 04:06:00,1779E-3,5C000000,-0724,0834,12187,028.1,045.5,0.475,737.0,01.18,0.508
2015-03-27 04:07:00,1844E-3,5C000000,-0724,0834,12001,028.0,045.5,0.475,737.1,01.18,0.508
2015-03-27 04:08:00,1847E-3,5C000000,-0724,0834,12184,028.0,045.4,0.474,737.4,01.18,0.508
2015-03-27 04:09:00,1936E-3,5C000000,-0724,0833,12203,028.0,045.4,0.474,737.2,01.18,0.508
2015-03-27 04:10:00,1898E-3,5C000000,-0724,0834,12142,028.1,045.5,0.475,737.4,01.18,0.508
2015-03-27 04:11:00,1926E-3,5C000000,-0724,0834,12147,028.1,045.4,0.474,737.2,01.18,0.508
2015-03-27 04:12:00,1789E-3,5C000000,-0724,0834,12192,028.1,045.4,0.474,737.4,01.18,0.508
2015-03-27 04:13:00,1987E-3,5C000000,-0724,0834,12242,028.1,045.4,0.475,737.6,01.18,0.508
2015-03-27 04:14:00,1964E-3,5C000000,-0724,0834,12168,028.1,045.4,0.474,737.3,01.18,0.508
2015-03-27 04:15:00,1874E-3,5C000000,-0724,0834,12188,028.1,045.4,0.474,737.0,01.18,0.508
2015-03-27 04:16:00,1887E-3,5C000000,-0724,0834,12072,028.1,045.4,0.475,737.3,01.18,0.508
2015-03-27 04:17:00,2019E-3,5C000000,-0724,0834,12315,028.1,045.4,0.475,737.4,01.18,0.508
2015-03-27 04:18:00,1990E-3,5C000000,-0724,0834,12143,028.1,045.4,0.474,737.1,01.18,0.508
2015-03-27 04:19:00,1965E-3,5C000000,-0724,0834,12217,028.1,045.5,0.474,737.4,01.18,0.508
2015-03-27 04:20:00,1970E-3,5C000000,-0724,0834,12295,028.1,045.4,0.475,737.3,01.18,0.508